Regional Weather Roundup
Issued by NWS

Home | Current Version | Previous Version | Graphics & Text | Print | Product List | Glossary Off
Versions: 1 2 3 4 5 6 7 8 9 10 11 12 13 14 15 16 17 18 19 20 21 22 23 24 25 26 27 28 29 30 31 32 33 34 35 36 37 38 39 40 41 42 43 44 45 46 47 48 49 50

000
ASUS43 KMKX 181821
RWRWI

WISCONSIN REGIONAL WEATHER ROUNDUP
NATIONAL WEATHER SERVICE MILWAUKEE/SULLIVAN WI
1200 PM CST THU DEC 18 2014

NOTE: "FAIR" INDICATES FEW OR NO CLOUDS BELOW 12,000 FEET WITH NO
SIGNIFICANT WEATHER AND/OR OBSTRUCTIONS TO VISIBILITY.

WIZ001-002-006>008-014>016-023>028-181900-
NORTHWEST WISCONSIN

CITY           SKY/WX    TMP DP  RH WIND       PRES   REMARKS
SUPERIOR ARPT  CLOUDY    27  21  79 SE3       30.29F
6HR MIN TEMP:  20; 6HR MAX TEMP:  27;

ASHLAND        MOSUNNY   25  18  74 E7        30.30F WCI  17
6HR MIN TEMP:  21; 6HR MAX TEMP:  26;

HAYWARD        CLOUDY    23  18  81 VRB3      30.26F
6HR MIN TEMP:  21; 6HR MAX TEMP:  23;

SIREN          CLOUDY    22  19  86 SW7       30.29S WCI  14
6HR MIN TEMP:  19; 6HR MAX TEMP:  22;

CUMBERLAND     CLOUDY    23  19  86 S7        30.26F WCI  15
RICE LAKE      CLOUDY    23  20  87 S3        30.29S
6HR MIN TEMP:  22; 6HR MAX TEMP:  23;

CHETEK         CLOUDY    23  19  87 SE5       30.28F WCI  17
6HR MIN TEMP:  21; 6HR MAX TEMP:  23;

LADYSMITH      CLOUDY    24  20  84 CALM      30.28S
6HR MIN TEMP:  22; 6HR MAX TEMP:  25;

EAU CLAIRE     CLOUDY    23  18  81 S3        30.28F
6HR MIN TEMP:  21; 6HR MAX TEMP:  24;

MENOMONIE      CLOUDY    24  19  83 E5        30.29F WCI  18
6HR MIN TEMP:  22; 6HR MAX TEMP:  24;

NEW RICHMOND   CLOUDY    23  19  84 S3        30.29F
6HR MIN TEMP:  20; 6HR MAX TEMP:  23;

OSCEOLA        CLOUDY    23  19  85 S5        30.32F WCI  17
6HR MIN TEMP:  19; 6HR MAX TEMP:  23;

$$

WIZ003>005-009-010-017-018-181900-
NORTH CENTRAL WISCONSIN

CITY           SKY/WX    TMP DP  RH WIND       PRES   REMARKS
MANITOWISH WTR MOSUNNY   23  16  74 CALM      30.23F
6HR MIN TEMP:  19; 6HR MAX TEMP:  24;

ARBOR VITAE    MOSUNNY   24  18  75 S7        30.22F WCI  16
6HR MIN TEMP:  22; 6HR MAX TEMP:  24;

WOODRUFF       MOSUNNY   24  18  75 S7        30.22F WCI  16
6HR MIN TEMP:  22; 6HR MAX TEMP:  24;

RHINELANDER    MOSUNNY   22  16  78 CALM      30.23F
6HR MIN TEMP:  19; 6HR MAX TEMP:  22;

EAGLE RIVER    MOSUNNY   24  15  69 CALM      30.22F
6HR MIN TEMP:  20; 6HR MAX TEMP:  24; 6HR PCP:  0.02;

LAND O LAKES   MOSUNNY   26  18  72 CALM      30.22F
6HR MIN TEMP:  20; 6HR MAX TEMP:  26; 6HR PCP:  0.09;

PHILLIPS       CLOUDY    21  17  83 SE5       30.24F WCI  14
6HR MIN TEMP:  19; 6HR MAX TEMP:  21;

TOMAHAWK       CLOUDY    23  18  81 CALM      30.25F
6HR MIN TEMP:  20; 6HR MAX TEMP:  23;

MEDFORD        CLOUDY    22  18  83 CALM      30.24S
6HR MIN TEMP:  21; 6HR MAX TEMP:  22;

MERRILL        CLOUDY    24  18  79 SE3       30.25F
6HR MIN TEMP:  22; 6HR MAX TEMP:  24;

$$

WIZ029-030-035-036-043>047-181900-
CENTRAL WISCONSIN

CITY           SKY/WX    TMP DP  RH WIND       PRES   REMARKS
WAUSAU         CLOUDY    24  19  81 E3        30.24F
6HR MIN TEMP:  23; 6HR MAX TEMP:  24;

MOSINEE        CLOUDY    25  21  86 SE5       30.26F WCI  19
MARSHFIELD     CLOUDY    25  19  78 S5        30.24F WCI  19
6HR MIN TEMP:  22; 6HR MAX TEMP:  25;

STEVENS POINT  CLOUDY    24  19  81 E3        30.26F
6HR MIN TEMP:  22; 6HR MAX TEMP:  24;

WAUPACA        CLOUDY    28  21  72 N3        30.27F
6HR MIN TEMP:  27; 6HR MAX TEMP:  28;

WAUTOMA        CLOUDY    27  22  81 CALM      30.27F
6HR MIN TEMP:  23; 6HR MAX TEMP:  27;

WISC RAPIDS    CLOUDY    25  19  78 CALM      30.27F
6HR MIN TEMP:  22; 6HR MAX TEMP:  26;

CAMP DOUGLAS   CLOUDY    23  23 100 CALM      30.27F
                                      6HR PCP: TRACE;

$$

WIZ011>013-019>022-031-037>040-048>050-181900-
NORTHEAST WISCONSIN

CITY           SKY/WX    TMP DP  RH WIND       PRES   REMARKS
ANTIGO         MOSUNNY   25  17  71 CALM      30.22F
6HR MIN TEMP:  20; 6HR MAX TEMP:  25;

SHAWANO        MOSUNNY   31  20  62 CALM      30.27F
6HR MIN TEMP:  27; 6HR MAX TEMP:  32;

OCONTO         PTSUNNY   27  20  73 E3        30.27F
6HR MIN TEMP:  26; 6HR MAX TEMP:  27;

STURGEON BAY   CLOUDY    27  19  74 N7        30.26F WCI  19
6HR MIN TEMP:  25; 6HR MAX TEMP:  27;

GREEN BAY      CLOUDY    28  21  75 N7        30.26F WCI  21
6HR MIN TEMP:  26; 6HR MAX TEMP:  28;

MANITOWOC      CLOUDY    29  24  82 NW9       30.24F WCI  20
6HR MIN TEMP:  27; 6HR MAX TEMP:  29; 6HR PCP: TRACE;

APPLETON       CLOUDY    27  19  74 N6        30.26F WCI  20
CLINTONVILLE   CLOUDY    28  19  69 CALM      30.26F
OSHKOSH        CLOUDY    27  20  75 N5        30.26F WCI  22
6HR MIN TEMP:  25; 6HR MAX TEMP:  27; 6HR PCP: TRACE;

$$

WIZ032>034-041-042-053>061-181900-
SOUTHWEST WISCONSIN

CITY           SKY/WX    TMP DP  RH WIND       PRES   REMARKS
LA CROSSE      CLOUDY    25  18  74 S3        30.30F
6HR MIN TEMP:  21; 6HR MAX TEMP:  25;

SPARTA         CLOUDY    24  19  81 CALM      30.29F
6HR MIN TEMP:  21; 6HR MAX TEMP:  24;

VIROQUA        CLOUDY    22  19  89 E5        30.24F WCI  16
6HR MIN TEMP:  18; 6HR MAX TEMP:  22;

BOSCOBEL       CLOUDY    27  17  66 CALM      30.29F
6HR MIN TEMP:  12; 6HR MAX TEMP:  27;

PRAIRIE DU CHI MOSUNNY   26  18  70 CALM      30.28F
6HR MIN TEMP:  15; 6HR MAX TEMP:  26;

PLATTEVILLE    MOSUNNY   23  18  81 CALM      30.26F
6HR MIN TEMP:  14; 6HR MAX TEMP:  23;

$$

WIZ056-057-062-063-064-067-068-181900-
SOUTH CENTRAL WISCONSIN

CITY           SKY/WX    TMP DP  RH WIND       PRES   REMARKS
REEDSBURG      CLOUDY    24  20  84 CALM      30.26F
6HR MIN TEMP:  22; 6HR MAX TEMP:  24;

BARABOO/DELLS  CLOUDY    24  20  82 CALM      30.25F
6HR MIN TEMP:  21; 6HR MAX TEMP:  24;

LONE ROCK      NOT AVBL
MINERAL POINT  CLOUDY    27  19  74 CALM      30.24F
MADISON        FLURRIES  26  20  77 NW5       30.25F WCI  20
6HR MIN TEMP:  18; 6HR MAX TEMP:  26; 6HR PCP: TRACE;

MIDDLETON      CLOUDY    27  21  77 CALM      30.26F
6HR MIN TEMP:  19; 6HR MAX TEMP:  27;

WATERTOWN      CLOUDY    26  24  93 NW5       30.25F FOG     WCI  20
6HR MIN TEMP:  22; 6HR MAX TEMP:  26;

MONROE         CLOUDY    25  19  80 CALM      30.24F
JANESVILLE     CLOUDY    27  19  74 W6        30.26F WCI  20
$$

WIZ051-052-058>065-066-070>072-181900-
SOUTHEAST WISCONSIN

CITY           SKY/WX    TMP DP  RH WIND       PRES   REMARKS
MILWAUKEE      CLOUDY    27  21  78 W8        30.25F WCI  19
6HR MIN TEMP:  19; 6HR MAX TEMP:  28;

WAUKESHA       CLOUDY    23  21  93 W6        30.26F FOG     WCI  16
MILWAUKEE/TIMM CLOUDY    27  23  86 W8        30.26F FOG     WCI  18
RACINE         CLOUDY    28  19  69 NW6       30.26F WCI  22
6HR MIN TEMP:  18; 6HR MAX TEMP:  28;

BURLINGTON     CLOUDY    27  19  71 W7        30.24F WCI  20
6HR MIN TEMP:  13; 6HR MAX TEMP:  28;

KENOSHA        CLOUDY    27  21  78 W7        30.24F WCI  19
6HR MIN TEMP:  17; 6HR MAX TEMP:  27;

FOND DU LAC    CLOUDY    27  21  78 N8        30.25F WCI  19
6HR MIN TEMP:  24; 6HR MAX TEMP:  28; 6HR PCP: TRACE;

SHEBOYGAN      CLOUDY    28  21  75 NW9       30.24F WCI  19
6HR MIN TEMP:  25; 6HR MAX TEMP:  28;

WEST BEND      CLOUDY    28  23  80 N5        30.24F WCI  23
JUNEAU         CLOUDY    26  22  87 NW3       30.26F
6HR MIN TEMP:  22; 6HR MAX TEMP:  26;

$$

LSZ147-162-181900-
LAKE SUPERIOR

STATION/POSITION TIME  TEMP    WIND        PRES    WAVE
                       AIR SEA DIR/SP/G            HT/PER
                 (UTC) (F)     (DEG/KT/KT) (MB)    (FT/S)
DEVILS ISLAND    1800   28      60/ 12/ 14 1027.1F
PORT WING        1700   28     110/  2/  5 1026.4
SAXON HARBOR     1700   28     140/  2/ 11 1026.4S
$$

LMZ867-665-643>646-181900-
LAKE MICHIGAN

STATION/POSITION TIME  TEMP    WIND        PRES    WAVE
                       AIR SEA DIR/SP/G            HT/PER



USA.gov is the U.S. government's official web portal to all federal, state and local government web resources and services.